Language: 


Des rapports , des résumés tant et plus, au choix de chacun....


Données Historiques de Météogheer
Journalier Rapport pour Décembre 15, 2017 Unitée:  Impériale    Métrique   Les deux
Suivant Jour »
Journalier Hebdomadaire Mensuel Annuel Sur mesure
  Max: Min: Moyenne:
Température: 41 °F 33.8 °F 37.2 °F
Point de rosée: 41 °F 33.8 °F 37.2 °F
Humidité: 98% 98% 98%
Vent: 6.7mph 0mph 2.1mph
Rafales: 10.3mph - -
Vent- - WSW
Pression: 29.6 in 29.2 in -
Pluie: 0.1 in    
Historical Graphs
 
 
Données tabulaires pour Décembre 15, 2017
Heure Température Point de rosée Pression Vent Vent Rafales Humidité Pluie Taux (Horaire) Conditions
00:04 34 °F 33.8 °F 29.2 in Calm   3.1 mph 98% 0 in
00:09 34.2 °F 33.8 °F 29.2 in Calm   4.3 mph 98% 0 in
00:14 34.3 °F 33.8 °F 29.2 in Calm   4.3 mph 98% 0 in
00:19 34.5 °F 33.8 °F 29.2 in SW 5.4 mph 6.3 mph 98% 0 in
00:24 34.7 °F 35.6 °F 29.2 in SW 6.3 mph 6.3 mph 98% 0 in
00:30 34.9 °F 35.6 °F 29.2 in Calm   6.3 mph 98% 0 in
00:35 35.1 °F 35.6 °F 29.2 in SSW 5.4 mph 6.5 mph 98% 0 in
00:40 35.2 °F 35.6 °F 29.2 in SSW 4 mph 6.5 mph 98% 0 in
00:45 35.4 °F 35.6 °F 29.2 in Calm   7.6 mph 98% 0 in
00:50 35.4 °F 35.6 °F 29.2 in SSW 5.8 mph 7.6 mph 98% 0 in
00:55 35.6 °F 35.6 °F 29.2 in SW 5.4 mph 7.6 mph 98% 0 in
01:00 35.6 °F 35.6 °F 29.2 in SW 2.2 mph 7.6 mph 98% 0 in
01:05 35.8 °F 35.6 °F 29.2 in SSW 5.6 mph 7.4 mph 98% 0 in
01:06 35.8 °F 35.6 °F 29.2 in Calm   7.4 mph 98% 0 in
01:12 35.8 °F 35.6 °F 29.2 in SW 3.6 mph 5.6 mph 98% 0 in
01:17 35.8 °F 35.6 °F 29.2 in Calm   6.3 mph 98% 0 in
01:22 36 °F 35.6 °F 29.2 in Calm   6.7 mph 98% 0 in
01:27 36.1 °F 37.4 °F 29.2 in SW 5.6 mph 7.2 mph 98% 0 in
01:32 36.3 °F 37.4 °F 29.2 in WSW 5.4 mph 7.2 mph 98% 0 in
01:37 36.5 °F 37.4 °F 29.2 in SW 4.3 mph 8.1 mph 98% 0 in
01:42 36.7 °F 37.4 °F 29.2 in SW 4.9 mph 8.1 mph 98% 0 in
01:47 36.9 °F 37.4 °F 29.2 in WSW 5.4 mph 9.8 mph 98% 0.01 in
01:52 36.9 °F 37.4 °F 29.2 in WSW 5.8 mph 9.8 mph 98% 0.01 in
01:57 36.9 °F 37.4 °F 29.2 in WSW 6 mph 7.6 mph 98% 0.01 in
02:02 37 °F 37.4 °F 29.2 in SW 6.3 mph 6.5 mph 98% 0.01 in
02:07 37 °F 37.4 °F 29.2 in WSW 5.4 mph 6.5 mph 98% 0.01 in
02:12 37.2 °F 37.4 °F 29.2 in SW 5.4 mph 6.5 mph 98% 0.01 in
02:18 37.4 °F 37.4 °F 29.2 in WSW 2 mph 5.8 mph 98% 0.03 in
02:23 37.4 °F 37.4 °F 29.2 in SW 4 mph 5.8 mph 98% 0.04 in
02:28 37.6 °F 37.4 °F 29.2 in Calm   6.5 mph 98% 0.04 in
02:33 37.6 °F 37.4 °F 29.2 in South 0.9 mph 6.5 mph 98% 0.05 in
02:38 37.9 °F 37.4 °F 29.2 in Calm   5.4 mph 98% 0.05 in
02:43 37.9 °F 37.4 °F 29.2 in SSW 2 mph 3.4 mph 98% 0.06 in
02:48 37.9 °F 37.4 °F 29.2 in SSW 0.9 mph 3.6 mph 98% 0.05 in
02:53 37.9 °F 37.4 °F 29.2 in Calm   3.8 mph 98% 0.05 in
02:58 37.9 °F 37.4 °F 29.2 in Calm   3.8 mph 98% 0.05 in
03:03 37.9 °F 37.4 °F 29.2 in Calm   2.9 mph 98% 0.05 in
03:08 37.9 °F 37.4 °F 29.2 in SSW 3.6 mph 3.6 mph 98% 0.05 in
03:09 37.9 °F 37.4 °F 29.2 in South 2.5 mph 3.6 mph 98% 0.05 in
03:14 37.9 °F 37.4 °F 29.2 in SSW 2.5 mph 3.8 mph 98% 0.03 in
03:19 37.9 °F 37.4 °F 29.2 in WSW 4.3 mph 4.7 mph 98% 0.03 in
03:24 37.9 °F 37.4 °F 29.2 in SSW 2.7 mph 6.3 mph 98% 0.02 in
03:29 37.9 °F 37.4 °F 29.3 in Calm   6.3 mph 98% 0.02 in
03:34 37.8 °F 37.4 °F 29.3 in SW 5.4 mph 6 mph 98% 0.01 in
03:39 37.8 °F 37.4 °F 29.3 in SW 3.4 mph 6.3 mph 98% 0.01 in
03:44 37.9 °F 37.4 °F 29.2 in SSW 4 mph 6.3 mph 98% 0 in
03:49 37.9 °F 37.4 °F 29.2 in SSW 6.5 mph 6.5 mph 98% 0 in
03:54 37.9 °F 37.4 °F 29.2 in WSW 3.6 mph 6.5 mph 98% 0 in
03:59 38.1 °F 37.4 °F 29.3 in SW 5.6 mph 6.5 mph 98% 0 in
04:04 38.1 °F 37.4 °F 29.3 in WSW 5.4 mph 6.5 mph 98% 0 in
04:09 38.1 °F 37.4 °F 29.3 in SW 4.5 mph 6.3 mph 98% 0 in
04:14 38.1 °F 37.4 °F 29.3 in SSW 3.6 mph 6.3 mph 98% 0 in
04:19 38.3 °F 39.2 °F 29.3 in SW 0.9 mph 6 mph 98% 0 in
04:25 38.3 °F 39.2 °F 29.3 in SW 3.1 mph 5.6 mph 98% 0 in
04:30 38.5 °F 39.2 °F 29.2 in SW 3.8 mph 5.6 mph 98% 0 in
04:35 38.5 °F 39.2 °F 29.2 in WSW 5.4 mph 6.3 mph 98% 0 in
04:40 38.5 °F 39.2 °F 29.2 in SW 4.9 mph 6.3 mph 98% 0 in
04:45 38.3 °F 39.2 °F 29.3 in SW 4.3 mph 7.4 mph 98% 0 in
04:50 38.3 °F 39.2 °F 29.3 in WSW 4.3 mph 7.4 mph 98% 0 in
04:55 38.3 °F 39.2 °F 29.3 in WSW 4.7 mph 6.5 mph 98% 0 in
05:00 38.3 °F 39.2 °F 29.3 in SW 5.6 mph 8.1 mph 98% 0 in
05:05 38.3 °F 39.2 °F 29.3 in SW 4.7 mph 8.1 mph 98% 0 in
05:10 38.5 °F 39.2 °F 29.3 in Calm   5.6 mph 98% 0 in
05:15 38.5 °F 39.2 °F 29.3 in WSW 4.7 mph 6.3 mph 98% 0 in
05:20 38.3 °F 39.2 °F 29.3 in SSW 4 mph 6.3 mph 98% 0 in
05:26 38.3 °F 39.2 °F 29.3 in SSW 6.3 mph 6.3 mph 98% 0 in
05:31 38.3 °F 39.2 °F 29.3 in Calm   6.3 mph 98% 0 in
05:36 38.1 °F 37.4 °F 29.3 in SSW 3.4 mph 6.3 mph 98% 0 in
05:41 38.3 °F 39.2 °F 29.3 in SSW 5.4 mph 5.4 mph 98% 0 in
05:46 38.1 °F 37.4 °F 29.3 in WSW 4.3 mph 5.4 mph 98% 0 in
05:47 38.1 °F 37.4 °F 29.3 in WSW 4.3 mph 5.4 mph 98% 0 in
05:52 38.1 °F 37.4 °F 29.3 in WSW 4.3 mph 4.9 mph 98% 0 in
05:54 38.1 °F 37.4 °F 29.3 in Calm   5.4 mph 98% 0 in
06:00 38.1 °F 37.4 °F 29.3 in Calm   5.4 mph 98% 0 in
06:05 37.9 °F 37.4 °F 29.3 in SW 2.7 mph 4.9 mph 98% 0 in
06:10 37.9 °F 37.4 °F 29.3 in SW 2.9 mph 4.9 mph 98% 0 in
06:16 37.9 °F 37.4 °F 29.3 in Calm   3.6 mph 98% 0 in
06:21 37.8 °F 37.4 °F 29.3 in Calm   3.1 mph 98% 0 in
06:26 37.8 °F 37.4 °F 29.3 in WSW 3.6 mph 4.5 mph 98% 0 in
06:31 37.6 °F 37.4 °F 29.3 in Calm   4.9 mph 98% 0 in
06:36 37.4 °F 37.4 °F 29.3 in Calm   4.9 mph 98% 0 in
06:41 36.9 °F 37.4 °F 29.3 in SW 2.9 mph 4 mph 98% 0 in
06:46 36.7 °F 37.4 °F 29.3 in Calm   4 mph 98% 0 in
06:51 36.3 °F 37.4 °F 29.3 in Calm   2.5 mph 98% 0 in
06:56 36 °F 35.6 °F 29.3 in Calm     98% 0 in
07:01 35.6 °F 35.6 °F 29.3 in Calm     98% 0 in
07:06 35.4 °F 35.6 °F 29.3 in Calm   1.1 mph 98% 0 in
07:12 35.2 °F 35.6 °F 29.3 in Calm   1.1 mph 98% 0 in
07:17 35.2 °F 35.6 °F 29.3 in Calm   2.7 mph 98% 0 in
07:22 35.1 °F 35.6 °F 29.3 in Calm   2.7 mph 98% 0 in
07:27 35.1 °F 35.6 °F 29.3 in Calm   2.5 mph 98% 0 in
07:32 34.9 °F 35.6 °F 29.3 in Calm   2.5 mph 98% 0 in
07:37 34.9 °F 35.6 °F 29.3 in SSW 2.9 mph 3.8 mph 98% 0 in
07:42 35.1 °F 35.6 °F 29.3 in Calm   3.8 mph 98% 0 in
07:47 35.2 °F 35.6 °F 29.3 in SSE 2.9 mph 3.4 mph 98% 0 in
07:52 35.2 °F 35.6 °F 29.3 in SSW 1.1 mph 3.4 mph 98% 0 in
07:57 35.4 °F 35.6 °F 29.2 in South 3.1 mph 3.6 mph 98% 0 in
08:02 35.2 °F 35.6 °F 29.2 in South 2.9 mph 4.9 mph 98% 0 in
08:07 34.7 °F 35.6 °F 29.2 in SSE 3.8 mph 4.9 mph 98% 0 in
08:12 34.5 °F 33.8 °F 29.3 in Calm   3.8 mph 98% 0 in
08:17 34.5 °F 33.8 °F 29.3 in Calm   3.1 mph 98% 0 in
08:22 34.3 °F 33.8 °F 29.3 in Calm   2.5 mph 98% 0 in
08:27 34.2 °F 33.8 °F 29.3 in South 3.4 mph 3.4 mph 98% 0 in
08:32 34.2 °F 33.8 °F 29.3 in Calm   3.4 mph 98% 0 in
08:37 34.2 °F 33.8 °F 29.3 in SSW 2.7 mph 3.4 mph 98% 0 in
08:42 34 °F 33.8 °F 29.3 in SSW 0.9 mph 3.4 mph 98% 0 in
08:47 33.8 °F 33.8 °F 29.3 in Calm   2.9 mph 98% 0 in
08:50 33.8 °F 33.8 °F 29.3 in Calm   3.1 mph 98% 0 in
08:55 34 °F 33.8 °F 29.3 in SW 1.3 mph 3.8 mph 98% 0 in
09:00 34.3 °F 33.8 °F 29.3 in Calm   3.8 mph 98% 0 in
09:05 34.5 °F 33.8 °F 29.3 in Calm   3.6 mph 98% 0 in
09:10 34.5 °F 33.8 °F 29.3 in Calm   2.5 mph 98% 0 in
09:15 34.5 °F 33.8 °F 29.3 in Calm     98% 0 in
09:20 34.2 °F 33.8 °F 29.3 in WSW 0.9 mph 0.9 mph 98% 0 in
09:25 34 °F 33.8 °F 29.3 in Calm   0.9 mph 98% 0 in
09:30 34 °F 33.8 °F 29.3 in Calm   0.9 mph 98% 0 in
09:35 34 °F 33.8 °F 29.3 in Calm   3.1 mph 98% 0 in
09:40 34 °F 33.8 °F 29.3 in Calm   3.1 mph 98% 0 in
09:46 34 °F 33.8 °F 29.3 in SW 2.5 mph 2.7 mph 98% 0 in
09:51 34 °F 33.8 °F 29.3 in Calm   2.9 mph 98% 0 in
09:56 34 °F 33.8 °F 29.3 in Calm   2.9 mph 98% 0 in
10:01 34 °F 33.8 °F 29.3 in SW 3.8 mph 3.8 mph 98% 0 in
10:06 34 °F 33.8 °F 29.3 in Calm   3.8 mph 98% 0 in
10:11 34 °F 33.8 °F 29.3 in Calm   3.6 mph 98% 0 in
10:16 34 °F 33.8 °F 29.3 in West 0.9 mph 3.6 mph 98% 0 in
10:21 34 °F 33.8 °F 29.3 in Calm   3.6 mph 98% 0 in
10:26 34 °F 33.8 °F 29.3 in Calm   3.1 mph 98% 0 in
10:32 34 °F 33.8 °F 29.3 in SW 2.7 mph 2.7 mph 98% 0 in
10:37 34 °F 33.8 °F 29.3 in Calm   4.7 mph 98% 0 in
10:42 34 °F 33.8 °F 29.3 in SSW 3.6 mph 4.7 mph 98% 0 in
10:47 34 °F 33.8 °F 29.3 in Calm   4.7 mph 98% 0 in
10:52 34 °F 33.8 °F 29.3 in Calm   4.3 mph 98% 0 in
10:57 34 °F 33.8 °F 29.3 in WSW 1.6 mph 1.6 mph 98% 0 in
11:02 34 °F 33.8 °F 29.3 in Calm   3.1 mph 98% 0 in
11:07 34 °F 33.8 °F 29.3 in Calm   3.1 mph 98% 0 in
11:12 34 °F 33.8 °F 29.3 in Calm     98% 0 in
11:17 34 °F 33.8 °F 29.3 in SW 5.4 mph 6.3 mph 98% 0 in
11:22 34 °F 33.8 °F 29.3 in SW 3.4 mph 6.3 mph 98% 0 in
11:27 34 °F 33.8 °F 29.3 in Calm   5.4 mph 98% 0 in
11:32 34 °F 33.8 °F 29.3 in Calm   5.4 mph 98% 0 in
11:37 34 °F 33.8 °F 29.3 in SW 2.5 mph 3.8 mph 98% 0 in
11:42 34 °F 33.8 °F 29.3 in Calm   5.6 mph 98% 0 in
11:47 34 °F 33.8 °F 29.3 in SSW 3.4 mph 5.6 mph 98% 0 in
11:52 34 °F 33.8 °F 29.3 in SW 4.9 mph 5.8 mph 98% 0 in
11:57 34 °F 33.8 °F 29.3 in WSW 3.8 mph 5.8 mph 98% 0 in
12:02 34 °F 33.8 °F 29.3 in SW 4.9 mph 6.7 mph 98% 0 in
12:08 34 °F 33.8 °F 29.3 in WSW 4.3 mph 6.7 mph 98% 0 in
12:13 34 °F 33.8 °F 29.3 in WSW 4.3 mph 6.7 mph 98% 0 in
12:18 34 °F 33.8 °F 29.3 in West 6.3 mph 6.7 mph 98% 0 in
12:23 34 °F 33.8 °F 29.3 in West 5.6 mph 6.5 mph 98% 0 in
12:28 34 °F 33.8 °F 29.3 in Calm   5.6 mph 98% 0 in
12:33 34 °F 33.8 °F 29.3 in Calm   4.7 mph 98% 0 in
12:36 34 °F 33.8 °F 29.3 in WSW 6.7 mph 6.7 mph 98% 0 in
12:41 34 °F 33.8 °F 29.3 in WSW 5.6 mph 9.2 mph 98% 0 in
12:46 34 °F 33.8 °F 29.3 in West 3.6 mph 9.2 mph 98% 0 in
12:51 34 °F 33.8 °F 29.3 in NNW 2.5 mph 5.8 mph 98% 0 in
12:56 34 °F 33.8 °F 29.4 in WSW 6.3 mph 6.9 mph 98% 0 in
13:01 34 °F 33.8 °F 29.4 in West 4.3 mph 7.2 mph 98% 0 in
13:06 34 °F 33.8 °F 29.4 in WSW 2.9 mph 7.2 mph 98% 0 in
13:11 34 °F 33.8 °F 29.4 in SW 6 mph 6.3 mph 98% 0 in
13:16 34 °F 33.8 °F 29.4 in West 5.6 mph 6.7 mph 98% 0 in
13:21 34 °F 33.8 °F 29.4 in WSW 2.7 mph 6.7 mph 98% 0 in
13:22 34 °F 33.8 °F 29.4 in Calm   6.7 mph 98% 0 in
13:27 34 °F 33.8 °F 29.4 in Calm   5.4 mph 98% 0 in
13:32 34 °F 33.8 °F 29.4 in WSW 3.8 mph 3.8 mph 98% 0 in
13:37 34 °F 33.8 °F 29.4 in WSW 2.5 mph 4.3 mph 98% 0 in
13:43 34 °F 33.8 °F 29.4 in West 4.3 mph 6 mph 98% 0 in
13:48 34 °F 33.8 °F 29.4 in West 2.2 mph 6 mph 98% 0 in
13:53 34 °F 33.8 °F 29.4 in Calm   7.2 mph 98% 0 in
13:58 34 °F 33.8 °F 29.4 in Calm   7.2 mph 98% 0 in
14:03 34 °F 33.8 °F 29.4 in Calm   5.4 mph 98% 0 in
14:08 34 °F 33.8 °F 29.4 in Calm     98% 0.01 in
14:13 34 °F 33.8 °F 29.4 in Calm   3.6 mph 98% 0.01 in
14:18 34 °F 33.8 °F 29.4 in West 3.6 mph 4.5 mph 98% 0.01 in
14:23 34 °F 33.8 °F 29.4 in Calm   6 mph 98% 0.01 in
14:28 34 °F 33.8 °F 29.4 in West 3.4 mph 6 mph 98% 0.01 in
14:33 41 °F 41 °F 29.4 in West 0.9 mph 5.8 mph 98% 0.01 in
14:38 41 °F 41 °F 29.4 in Calm   5.8 mph 98% 0.01 in
14:43 41 °F 41 °F 29.4 in West 3.4 mph 5.4 mph 98% 0.01 in
14:48 41 °F 41 °F 29.4 in West 4.9 mph 6 mph 98% 0.01 in
14:53 41 °F 41 °F 29.4 in West 6 mph 6 mph 98% 0.01 in
14:58 41 °F 41 °F 29.4 in Calm   7.2 mph 98% 0.01 in
15:03 41 °F 41 °F 29.4 in Calm   5.8 mph 98% 0.01 in
15:08 41 °F 41 °F 29.4 in Calm   4.9 mph 98% 0 in
15:12 41 °F 41 °F 29.4 in Calm   4 mph 98% 0 in
15:17 41 °F 41 °F 29.4 in Calm   4 mph 98% 0 in
15:22 41 °F 41 °F 29.4 in Calm   3.1 mph 98% 0 in
15:27 41 °F 41 °F 29.4 in Calm   3.1 mph 98% 0 in
15:32 41 °F 41 °F 29.4 in Calm   2.9 mph 98% 0 in
15:37 40.8 °F 41 °F 29.4 in Calm   1.6 mph 98% 0 in
15:42 40.8 °F 41 °F 29.4 in Calm   3.6 mph 98% 0 in
15:47 40.8 °F 41 °F 29.4 in Calm   3.6 mph 98% 0 in
15:52 41 °F 41 °F 29.4 in West 3.8 mph 3.8 mph 98% 0 in
15:57 41 °F 41 °F 29.4 in WSW 6.3 mph 8.1 mph 98% 0 in
16:02 40.6 °F 41 °F 29.4 in WNW 3.8 mph 8.7 mph 98% 0 in
16:07 40.6 °F 41 °F 29.4 in Calm   8.7 mph 98% 0 in
16:12 40.6 °F 41 °F 29.4 in West 4 mph 5.4 mph 98% 0 in
16:17 40.5 °F 41 °F 29.4 in Calm   5.4 mph 98% 0 in
16:22 40.5 °F 41 °F 29.4 in Calm   4.9 mph 98% 0 in
16:27 40.3 °F 41 °F 29.4 in West 6.5 mph 6.5 mph 98% 0 in
16:32 40.3 °F 41 °F 29.4 in WSW 1.3 mph 6.5 mph 98% 0 in
16:37 40.3 °F 41 °F 29.4 in WSW 4.9 mph 5.4 mph 98% 0 in
16:42 39.7 °F 39.2 °F 29.4 in Calm   5.6 mph 98% 0 in
16:47 39.7 °F 39.2 °F 29.4 in West 3.8 mph 8.7 mph 98% 0 in
16:48 39.7 °F 39.2 °F 29.4 in Calm   8.7 mph 98% 0 in
16:53 39.7 °F 39.2 °F 29.4 in Calm   8.7 mph 98% 0 in
16:58 39.6 °F 39.2 °F 29.4 in SW 3.1 mph 7.8 mph 98% 0 in
17:03 39.9 °F 39.2 °F 29.4 in WNW 3.6 mph 7.8 mph 98% 0 in
17:09 40.1 °F 41 °F 29.4 in WNW 6 mph 9.4 mph 98% 0.01 in
17:14 40.5 °F 41 °F 29.4 in Calm   9.4 mph 98% 0.01 in
17:19 40.6 °F 41 °F 29.4 in Calm   8.7 mph 98% 0.01 in
17:24 40.6 °F 41 °F 29.4 in Calm   8.7 mph 98% 0.01 in
17:29 40.6 °F 41 °F 29.4 in Calm   6.3 mph 98% 0.01 in
17:34 40.6 °F 41 °F 29.4 in WSW 3.1 mph 3.4 mph 98% 0.01 in
17:39 40.5 °F 41 °F 29.4 in West 2.5 mph 3.4 mph 98% 0.01 in
17:44 40.6 °F 41 °F 29.4 in West 2.9 mph 3.8 mph 98% 0.01 in
17:49 40.5 °F 41 °F 29.4 in Calm   3.8 mph 98% 0.02 in
17:54 40.5 °F 41 °F 29.4 in Calm   3.8 mph 98% 0.02 in
17:59 40.3 °F 41 °F 29.4 in Calm   3.1 mph 98% 0.02 in
18:04 40.1 °F 41 °F 29.4 in Calm   3.1 mph 98% 0.01 in
18:09 39.9 °F 39.2 °F 29.4 in Calm   4 mph 98% 0.01 in
18:14 39.7 °F 39.2 °F 29.4 in Calm   4 mph 98% 0.01 in
18:19 39.4 °F 39.2 °F 29.4 in West 1.3 mph 3.8 mph 98% 0.01 in
18:24 39.2 °F 39.2 °F 29.4 in Calm   3.4 mph 98% 0.01 in
18:30 39.2 °F 39.2 °F 29.4 in Calm   4.3 mph 98% 0.01 in
18:35 39.2 °F 39.2 °F 29.4 in Calm   4.3 mph 98% 0.01 in
18:40 39.7 °F 39.2 °F 29.4 in West 3.4 mph 3.6 mph 98% 0.01 in
18:45 39.9 °F 39.2 °F 29.5 in Calm   3.6 mph 98% 0.01 in
18:50 40.1 °F 41 °F 29.5 in Calm   4.9 mph 98% 0 in
18:55 40.3 °F 41 °F 29.5 in Calm   4.9 mph 98% 0 in
19:00 40.3 °F 41 °F 29.5 in Calm   4.3 mph 98% 0 in
19:05 40.3 °F 41 °F 29.5 in Calm   4.9 mph 98% 0 in
19:10 40.5 °F 41 °F 29.5 in North 2.2 mph 4.9 mph 98% 0 in
19:15 40.5 °F 41 °F 29.5 in North 3.8 mph 5.8 mph 98% 0 in
19:20 40.5 °F 41 °F 29.5 in North 5.8 mph 8.5 mph 98% 0 in
19:25 40.5 °F 41 °F 29.5 in North 3.1 mph 10.3 mph 98% 0 in
19:31 40.6 °F 41 °F 29.5 in North 4.3 mph 10.3 mph 98% 0 in
19:36 40.6 °F 41 °F 29.5 in Calm   7.4 mph 98% 0 in
19:41 40.6 °F 41 °F 29.5 in Calm   6 mph 98% 0 in
19:46 40.5 °F 41 °F 29.5 in NW 1.1 mph 7.4 mph 98% 0 in
19:51 40.5 °F 41 °F 29.5 in NNW 3.4 mph 7.4 mph 98% 0 in
19:56 40.5 °F 41 °F 29.5 in North 5.6 mph 7.2 mph 98% 0 in
20:01 40.1 °F 41 °F 29.5 in North 2.7 mph 7.2 mph 98% 0 in
20:06 39.9 °F 39.2 °F 29.5 in Calm   6.5 mph 98% 0 in
20:11 39.9 °F 39.2 °F 29.5 in North 3.1 mph 6.5 mph 98% 0 in
20:16 39.9 °F 39.2 °F 29.5 in NNE 0.9 mph 7.2 mph 98% 0 in
20:21 39.9 °F 39.2 °F 29.5 in NNW 6.3 mph 8.1 mph 98% 0 in
20:26 39.9 °F 39.2 °F 29.5 in North 6 mph 9.2 mph 98% 0 in
20:31 39.9 °F 39.2 °F 29.5 in North 6.3 mph 9.2 mph 98% 0 in
20:37 39.9 °F 39.2 °F 29.5 in NNW 3.4 mph 8.1 mph 98% 0 in
20:42 39.7 °F 39.2 °F 29.6 in NNW 5.4 mph 9.4 mph 98% 0 in
20:47 39.6 °F 39.2 °F 29.6 in Calm   9.4 mph 98% 0 in
20:52 39.4 °F 39.2 °F 29.6 in North 5.4 mph 6.3 mph 98% 0 in
20:57 39.2 °F 39.2 °F 29.5 in Calm   6.3 mph 98% 0 in
21:02 39.2 °F 39.2 °F 29.5 in NNW 4.3 mph 6.3 mph 98% 0 in
21:07 39.2 °F 39.2 °F 29.5 in NNW 3.1 mph 8.5 mph 98% 0 in
21:12 39.2 °F 39.2 °F 29.6 in NNW 6.3 mph 8.5 mph 98% 0 in
21:17 39.2 °F 39.2 °F 29.6 in NNE 6.3 mph 8.1 mph 98% 0 in
21:22 39.2 °F 39.2 °F 29.6 in NW 1.1 mph 6.3 mph 98% 0 in
21:27 39.2 °F 39.2 °F 29.6 in NNW 5.8 mph 6.5 mph 98% 0 in
21:33 39.2 °F 39.2 °F 29.6 in NNE 5.4 mph 6.5 mph 98% 0 in
21:38 39.2 °F 39.2 °F 29.6 in North 3.1 mph 5.8 mph 98% 0 in
21:43 39.2 °F 39.2 °F 29.6 in NNW 3.4 mph 5.6 mph 98% 0 in
21:49 39.2 °F 39.2 °F 29.6 in Calm   4 mph 98% 0 in
21:54 39.2 °F 39.2 °F 29.6 in Calm   5.4 mph 98% 0 in
21:59 39.2 °F 39.2 °F 29.6 in Calm   5.4 mph 98% 0 in
22:04 39.2 °F 39.2 °F 29.6 in Calm   4.7 mph 98% 0 in
22:09 39.2 °F 39.2 °F 29.6 in North 2.2 mph 2.2 mph 98% 0 in
22:14 39.2 °F 39.2 °F 29.6 in Calm   2.2 mph 98% 0 in
22:19 39.2 °F 39.2 °F 29.6 in Calm     98% 0 in
22:24 39.2 °F 39.2 °F 29.6 in Calm     98% 0 in
22:29 37.8 °F 37.4 °F 29.6 in Calm     98% 0 in
22:35 37.8 °F 37.4 °F 29.6 in Calm   1.6 mph 98% 0 in
22:40 37.8 °F 37.4 °F 29.6 in North 2.2 mph 2.5 mph 98% 0 in
22:45 37.8 °F 37.4 °F 29.6 in NNW 2.2 mph 2.5 mph 98% 0 in
22:50 37.8 °F 37.4 °F 29.6 in Calm   2.2 mph 98% 0 in
22:55 37.8 °F 37.4 °F 29.6 in Calm     98% 0 in
23:00 37.8 °F 37.4 °F 29.6 in Calm     98% 0 in
23:05 37.8 °F 37.4 °F 29.6 in Calm     98% 0 in
23:10 37.8 °F 37.4 °F 29.6 in Calm   2.7 mph 98% 0 in
23:13 37.8 °F 37.4 °F 29.6 in Calm   2.7 mph 98% 0 in
23:18 37.8 °F 37.4 °F 29.6 in Calm   2.7 mph 98% 0 in
23:23 37.8 °F 37.4 °F 29.6 in North 2.9 mph 2.9 mph 98% 0 in
23:29 37.8 °F 37.4 °F 29.6 in Calm   2.9 mph 98% 0 in
23:33 37.8 °F 37.4 °F 29.6 in Calm   2.9 mph 98% 0 in
23:38 37.8 °F 37.4 °F 29.6 in Calm   0.9 mph 98% 0 in
23:43 37.8 °F 37.4 °F 29.6 in Calm   5.4 mph 98% 0 in
23:48 37.8 °F 37.4 °F 29.6 in Calm   5.4 mph 98% 0 in
23:49 37.8 °F 37.4 °F 29.6 in Calm   5.4 mph 98% 0 in
23:54 37.8 °F 37.4 °F 29.6 in WNW 2.7 mph 3.6 mph 98% 0 in
23:59 37.8 °F 37.4 °F 29.6 in Calm   3.4 mph 98% 0 in
Données Historique de Météo Turbie

Mise a jour : 24/05/2018 23:08:13
Généré par Cumulus 1.9.4 (1099)